Stations météo

réclame
Mon MeteoGroup
Badajoz/Talavera La Real, Espagne (8330): Température de l'air & dewpoint: 18.05.2019 05:00:00 - 24.05.2019 05:00:00 (CEST)Badajoz/Talavera La Real, Espagne (8330): Vitesse du vent: 18.05.2019 05:00:00 - 24.05.2019 05:00:00 (CEST)Badajoz/Talavera La Real, Espagne (8330): Direction du vent: 18.05.2019 05:00:00 - 24.05.2019 05:00:00 (CEST)Badajoz/Talavera La Real, Espagne (8330): reduced air pressure: 18.05.2019 05:00:00 - 24.05.2019 05:00:00 (CEST)Badajoz/Talavera La Real, Espagne (8330): visibility: 18.05.2019 05:00:00 - 24.05.2019 05:00:00 (CEST)Badajoz/Talavera La Real, Espagne (8330): Quantités de précipitations: 18.05.2019 05:00:00 - 24.05.2019 05:00:00 (CEST)
Date & Time tt [°C] td [°C] ff [km/h] ff [knt] dd ppp [hPa] vv [km] rr [mm]
24.05.2019 05:00:00 13,7 7,9 11 6 W 1015,8 - -
24.05.2019 04:00:00 14,3 8,3 11 6 W 1016,2 - 0,0
24.05.2019 03:00:00 14,9 8,4 13 7 W 1016,7 - 0,0
24.05.2019 02:00:00 16,0 8,0 15 8 W 1016,8 - -
24.05.2019 01:00:00 17,1 9,5 13 7 W 1017,0 - 0,0
24.05.2019 00:00:00 18,3 12,1 16 9 W 1017,0 - 0,0
23.05.2019 23:00:00 19,9 12,2 22 12 WNW 1016,7 - -
23.05.2019 22:00:00 21,7 12,3 21 11 W 1015,7 - 0,0
23.05.2019 21:00:00 23,9 11,9 22 12 WNW 1015,2 - 0,0
23.05.2019 20:00:00 26,4 7,4 22 12 WNW 1015,0 40 -
23.05.2019 19:00:00 26,4 5,3 21 11 WNW 1015,1 - 0,0
23.05.2019 18:00:00 28,8 5,6 18 10 W 1015,0 - 0,0
23.05.2019 17:00:00 29,2 5,9 18 10 WNW 1015,1 40 -
23.05.2019 16:00:00 30,0 6,0 15 8 W 1015,4 - 0,0
23.05.2019 15:00:00 29,2 6,5 13 7 W 1015,8 - 0,0
23.05.2019 14:00:00 28,0 6,7 15 8 W 1016,7 40 -
23.05.2019 13:00:00 26,3 10,0 13 7 W 1017,4 - 0,0
23.05.2019 12:00:00 23,8 11,1 9 5 W 1017,7 - 0,0
23.05.2019 11:00:00 20,4 11,1 4 2 W 1018,0 40 -
23.05.2019 10:00:00 17,6 10,7 5 3 WNW 1018,5 - 0,0
23.05.2019 09:00:00 15,3 10,5 5 3 W 1018,2 - 0,0
23.05.2019 08:00:00 14,5 9,9 4 2 SW 1017,7 15 -
23.05.2019 07:00:00 13,9 9,9 2 1 SW 1017,5 - 0,0
23.05.2019 06:00:00 14,7 10,1 4 2 WSW 1017,6 - 0,0
23.05.2019 05:00:00 16,0 10,7 4 2 SW 1017,5 - -
23.05.2019 04:00:00 17,0 10,6 5 3 W 1017,4 - 0,0
23.05.2019 03:00:00 18,3 11,1 5 3 WSW 1017,4 - 0,0
23.05.2019 02:00:00 18,8 12,1 5 3 WSW 1017,3 - -
23.05.2019 01:00:00 19,5 12,5 9 5 WNW 1017,2 - 0,0
23.05.2019 00:00:00 21,2 12,9 18 10 WNW 1016,5 - 0,0
22.05.2019 23:00:00 23,2 12,2 18 10 WNW 1015,8 - -
22.05.2019 22:00:00 24,8 9,5 11 6 W 1014,9 - 0,0
22.05.2019 21:00:00 28,3 6,4 9 5 W 1014,1 - 0,0
22.05.2019 20:00:00 29,9 6,5 15 8 WNW 1013,7 15 -
22.05.2019 19:00:00 30,7 7,2 16 9 WNW 1013,7 - 0,0
22.05.2019 18:00:00 30,4 8,7 11 6 NW 1013,9 - 0,0
22.05.2019 17:00:00 30,1 9,0 9 5 WNW 1014,5 15 -
22.05.2019 16:00:00 29,9 8,9 9 5 NW 1014,8 - 0,0
22.05.2019 15:00:00 29,7 9,2 5 3 WSW 1015,4 - 0,0
22.05.2019 14:00:00 28,3 9,6 8 4 W 1015,9 15 -
22.05.2019 13:00:00 26,4 9,7 9 5 NNW 1016,5 - 0,0
22.05.2019 12:00:00 24,6 11,2 4 2 WSW 1016,8 - 0,0
22.05.2019 11:00:00 21,5 12,3 4 2 W 1017,0 15 -
22.05.2019 10:00:00 18,5 12,0 4 2 WSW 1017,2 - 0,0
22.05.2019 09:00:00 15,9 11,5 4 2 WNW 1016,9 - 0,0
22.05.2019 08:00:00 14,6 11,2 4 2 W 1016,5 10 -
22.05.2019 07:00:00 13,2 10,4 2 1 WSW 1016,2 - 0,0
22.05.2019 06:00:00 13,9 11,1 5 3 WSW 1016,2 - 0,0
22.05.2019 05:00:00 14,7 11,3 4 2 WSW 1016,0 - -
22.05.2019 04:00:00 16,2 12,0 8 4 WSW 1016,1 - 0,0
22.05.2019 03:00:00 16,9 12,0 8 4 W 1016,2 - 0,0
22.05.2019 02:00:00 17,1 12,2 9 5 W 1015,9 - -
22.05.2019 01:00:00 18,4 11,9 13 7 W 1015,7 - 0,0
22.05.2019 00:00:00 20,5 9,4 9 5 W 1015,3 - 0,0
21.05.2019 23:00:00 21,4 9,6 5 3 W 1014,8 - -
21.05.2019 22:00:00 22,5 10,0 9 5 W 1013,9 - 0,0
21.05.2019 21:00:00 24,5 9,2 11 6 W 1013,4 - 0,0
21.05.2019 20:00:00 26,2 9,1 9 5 W 1012,9 15 -
21.05.2019 19:00:00 26,2 9,1 13 7 W 1013,0 - 0,0
21.05.2019 18:00:00 27,3 8,2 13 7 W 1012,8 - 0,0
21.05.2019 17:00:00 27,5 6,8 5 3 WNW 1013,1 - -
21.05.2019 16:00:00 26,8 7,3 9 5 W 1013,6 - 0,0
21.05.2019 15:00:00 25,4 7,0 11 6 NW 1014,1 - 0,0
21.05.2019 14:00:00 24,3 7,9 9 5 NW 1014,8 15 -
21.05.2019 13:00:00 22,3 7,3 9 5 NW 1015,2 - 0,0
21.05.2019 12:00:00 20,7 8,7 11 6 W 1015,5 - 0,0
21.05.2019 11:00:00 18,6 9,6 11 6 WNW 1015,8 15 -
21.05.2019 10:00:00 16,1 10,4 11 6 W 1016,0 - 0,0
21.05.2019 09:00:00 14,0 10,2 13 7 W 1016,1 - 0,0
21.05.2019 08:00:00 12,8 10,2 9 5 W 1015,8 10 -
21.05.2019 07:00:00 11,9 9,8 11 6 W 1015,5 - 0,0
21.05.2019 06:00:00 12,5 9,9 8 4 W 1015,4 - 0,0
21.05.2019 05:00:00 13,1 9,7 11 6 W 1015,2 - -
21.05.2019 04:00:00 13,7 9,5 11 6 W 1014,8 - 0,0
21.05.2019 03:00:00 14,2 8,8 9 5 W 1015,0 - 0,0
21.05.2019 02:00:00 15,2 8,2 13 7 W 1015,1 - -
21.05.2019 01:00:00 16,3 7,5 15 8 W 1014,9 - 0,0
21.05.2019 00:00:00 17,8 6,9 16 9 W 1014,6 - 0,0
20.05.2019 23:00:00 19,0 6,8 16 9 W 1013,9 - -
20.05.2019 22:00:00 20,5 5,7 15 8 W 1012,7 - 0,0
20.05.2019 21:00:00 23,0 5,0 15 8 W 1012,1 - 0,0
20.05.2019 20:00:00 24,8 5,0 18 10 WNW 1011,5 15 -
20.05.2019 19:00:00 25,9 4,4 18 10 W 1011,3 - 0,0
20.05.2019 18:00:00 26,4 3,0 18 10 W 1011,3 - 0,0
20.05.2019 17:00:00 27,0 2,1 15 8 W 1011,7 15 -
20.05.2019 16:00:00 25,5 1,6 15 8 WNW 1012,0 - 0,0
20.05.2019 15:00:00 24,2 1,1 9 5 W 1012,9 - 0,0
20.05.2019 14:00:00 22,7 3,2 11 6 W 1013,5 15 -
20.05.2019 13:00:00 20,7 4,7 9 5 WNW 1014,0 - 0,0
20.05.2019 12:00:00 18,9 4,6 5 3 SW 1014,2 - 0,0
20.05.2019 11:00:00 16,1 4,8 8 4 W 1014,7 15 -
20.05.2019 10:00:00 14,0 5,6 9 5 W 1014,5 - 0,0
20.05.2019 09:00:00 11,7 5,1 9 5 W 1014,5 - 0,0
20.05.2019 08:00:00 9,3 4,3 4 2 SSW 1014,2 15 -
20.05.2019 07:00:00 8,6 4,0 4 2 SW 1013,6 - 0,0
20.05.2019 06:00:00 9,4 4,2 5 3 WSW 1013,5 - 0,0
20.05.2019 05:00:00 10,9 4,1 5 3 WSW 1013,5 - -
20.05.2019 04:00:00 12,2 4,4 8 4 W 1013,5 - 0,0
20.05.2019 03:00:00 13,3 4,4 11 6 W 1013,6 - 0,0
20.05.2019 02:00:00 14,5 4,8 9 5 W 1013,8 - -
20.05.2019 01:00:00 15,7 5,0 11 6 W 1014,0 - 0,0
20.05.2019 00:00:00 16,9 4,9 9 5 W 1013,6 - 0,0
19.05.2019 23:00:00 17,9 5,5 9 5 W 1013,1 - -
19.05.2019 22:00:00 18,7 4,8 11 6 W 1012,5 - 0,0
19.05.2019 21:00:00 20,4 4,8 15 8 W 1011,9 - 0,0
19.05.2019 20:00:00 21,8 4,4 21 11 W 1011,6 30 -
19.05.2019 19:00:00 22,7 5,1 22 12 WNW 1011,5 - 0,0
19.05.2019 18:00:00 24,3 5,1 18 10 WNW 1011,5 - 0,0
19.05.2019 17:00:00 24,5 3,7 24 13 WNW 1011,7 30 -
19.05.2019 16:00:00 24,6 3,3 16 9 W 1012,2 - 0,0
19.05.2019 15:00:00 23,2 2,6 13 7 W 1012,9 - 0,0
19.05.2019 14:00:00 21,5 3,2 13 7 NW 1013,5 30 -
19.05.2019 13:00:00 20,1 4,1 9 5 W 1014,0 - 0,0
19.05.2019 12:00:00 18,2 4,7 15 8 WNW 1014,2 - 0,0
19.05.2019 11:00:00 16,5 5,1 8 4 W 1014,8 30 -
19.05.2019 10:00:00 14,6 5,9 9 5 W 1015,2 - 0,0
19.05.2019 09:00:00 12,8 6,4 11 6 W 1015,0 - 0,0
19.05.2019 08:00:00 11,3 6,2 8 4 W 1014,9 30 -
19.05.2019 07:00:00 10,6 6,2 11 6 W 1014,7 - 0,0
19.05.2019 06:00:00 11,5 6,4 9 5 W 1014,5 - 0,0
19.05.2019 05:00:00 12,1 6,6 9 5 W 1014,3 - -
19.05.2019 04:00:00 12,2 6,7 11 6 W 1014,5 - 0,0
19.05.2019 03:00:00 12,6 6,2 13 7 WNW 1014,9 - 0,0
19.05.2019 02:00:00 13,2 5,4 15 8 WNW 1015,2 - -
19.05.2019 01:00:00 13,8 5,4 21 11 WNW 1015,3 - 0,0
19.05.2019 00:00:00 14,4 4,7 18 10 WNW 1015,4 - 0,0
18.05.2019 23:00:00 15,2 4,8 18 10 WNW 1015,0 - -
18.05.2019 22:00:00 16,4 3,1 21 11 WNW 1014,4 - 0,0
18.05.2019 21:00:00 17,7 2,8 21 11 W 1013,9 - 0,0
18.05.2019 20:00:00 19,6 2,0 24 13 WNW 1013,4 30 -
18.05.2019 19:00:00 20,4 2,2 26 14 WNW 1013,1 - 0,0
18.05.2019 18:00:00 21,4 2,1 26 14 WNW 1012,8 - 0,0
18.05.2019 17:00:00 21,3 2,0 22 12 WNW 1012,9 30 -
18.05.2019 16:00:00 21,1 2,4 21 11 WNW 1013,0 - 0,0
18.05.2019 15:00:00 20,1 2,0 18 10 NW 1013,6 - 0,0
18.05.2019 14:00:00 20,0 1,9 28 15 NW 1013,8 30 -
18.05.2019 13:00:00 18,8 2,6 22 12 NW 1014,4 - 0,0
18.05.2019 12:00:00 17,6 1,9 24 13 NW 1014,8 - 0,0
18.05.2019 11:00:00 16,2 2,2 24 13 NNW 1014,9 30 -
18.05.2019 10:00:00 14,2 2,7 22 12 NW 1015,1 - 0,0
18.05.2019 09:00:00 11,7 4,4 13 7 W 1015,2 - 0,0
18.05.2019 08:00:00 10,0 4,6 9 5 W 1015,1 30 -
18.05.2019 07:00:00 9,5 4,1 11 6 W 1014,8 - 0,0
18.05.2019 06:00:00 10,2 4,3 8 4 W 1014,3 - 0,0
18.05.2019 05:00:00 10,8 4,0 8 4 W 1014,2 - -

tt = Température de l'air
td = dewpoint
ff = Vitesse du vent
dd = Direction du vent
ppp = reduced air pressure
vv = visibility
rr = Quantités de précipitations

stations d'obs. à proximité